Location: Newark
(41.6500°N, 71.4833°W)
Time: 01:16:21
(UTC+00:00)

Transit 2A Rocket - Pass Details

Date: 03 February 2020
Orbit: 591 x 912 km, 66.7° (Epoch: 25 February)

Event Time Altitude Azimuth Distance (km) Brightness Sun altitude
Rises 07:49:47 0° 212° (SSW) 2,829 - -45.9°
Reaches altitude 10° 07:52:01 10° 214° (SW) 1,919 - -45.5°
Maximum altitude 07:56:17 77° 301° (WNW) 613 - -44.7°
Drops below altitude 10° 08:00:38 10° 27° (NNE) 1,955 - -44.0°
Exits shadow 08:02:55 - 29° (NNE) 2,881 8.5 -43.6°
Sets 08:02:56 0° 29° (NNE) 2,889 8.5 -43.6°
